Pittsburg, KS

5:55 AM CDT on October 23, 2017 (GMT -0500)
Atkinson Municipal

Weather History for KPTS - May, 2014

Change the Weather History Date:

Saturday, May 17, 2014

  Actual Average (KJLN) Record (KJLN)
Temperature  
Mean Temperature 54 °F -  
Max Temperature 65 °F 77 °F 89 °F (2001)
Min Temperature 44 °F 57 °F 40 °F (1973)
Degree Days  
Heating Degree Days 10    
Growing Degree Days 4 (Base 50)    
Moisture  
Dew Point 42 °F    
Average Humidity 64    
Maximum Humidity 100    
Minimum Humidity 32    
Precipitation  
Precipitation 0.00 in - - ()
Sea Level Pressure  
Sea Level Pressure 30.14 in    
Wind  
Wind Speed 6 mph (East)    
Max Wind Speed 13 mph    
Max Gust Speed 18 mph    
Visibility 10 miles    
Events      
Averages and records for this station are not official NWS values.
T = Trace of Precipitation, MM = Missing Value Source: NWS Daily Summary

Daily Weather History Graph

Daily Weather History Graph

Search for Another Location

Airport or City:

Trip Planner

Search our weather history database for the weather conditions in past years. The results will help you decide how hot, cold, wet, or windy it might be!

Date:

Astronomy

May. 17, 2014 Rise Set
Actual Time 6:08 AM CDT 8:22 PM CDT
Civil Twilight 5:38 AM CDT 8:52 PM CDT
Nautical Twilight 5:02 AM CDT 9:28 PM CDT
Astronomical Twilight 4:23 AM CDT 10:08 PM CDT
Moon 11:24 PM CDT (5/17) 8:51 AM CDT (5/17)
Length of Visible Light 15h 13m
Length of Day
14h 14m
Waning Gibbous, 89% of the Moon is Illuminated
May 17
Waning Gibbous
May 21
Last Quarter
May 28
New
Jun 5
First Quarter
Jun 12
Full

Hourly Weather History & Observations

Time (CDT) Temp. Windchill Dew Point Humidity Pressure Visibility Wind Dir Wind Speed Gust Speed Precip Events Conditions
12:15 AM 48.2 °F - 47.1 °F 96% 30.13 in 10.0 mi East 5.8 mph - N/A   Unknown
12:35 AM 48.2 °F - 47.5 °F 97% 30.14 in 10.0 mi East 5.8 mph - N/A   Unknown
12:55 AM 48.2 °F - 47.8 °F 99% 30.14 in 10.0 mi ESE 4.6 mph - N/A   Unknown
1:15 AM 48.2 °F - 47.7 °F 98% 30.14 in 10.0 mi SSE 5.8 mph - N/A   Unknown
1:35 AM 48.2 °F - 47.3 °F 97% 30.13 in 10.0 mi East 4.6 mph - N/A   Unknown
1:55 AM 48.2 °F - 47.8 °F 99% 30.12 in 10.0 mi SE 3.5 mph - N/A   Unknown
2:15 AM 48.2 °F - 48.2 °F 100% 30.12 in 10.0 mi East 5.8 mph - N/A   Unknown
2:35 AM 48.2 °F - 48.4 °F 100% 30.12 in 10.0 mi NE 4.6 mph - N/A   Unknown
2:55 AM 48.2 °F - 48.4 °F 100% 30.12 in 10.0 mi NE 4.6 mph - N/A   Unknown
3:15 AM 48.2 °F - 48.4 °F 100% 30.12 in 10.0 mi ENE 3.5 mph - N/A   Unknown
3:35 AM 48.2 °F - 48.4 °F 100% 30.12 in 10.0 mi NE 4.6 mph - N/A   Unknown
3:55 AM 48.2 °F - 48.4 °F 100% 30.12 in 10.0 mi ENE 4.6 mph - N/A   Unknown
4:15 AM 48.2 °F - 48.4 °F 100% 30.12 in 10.0 mi ENE 4.6 mph - N/A   Unknown
4:35 AM 46.4 °F 44.3 °F 46.6 °F 100% 30.12 in 10.0 mi East 4.6 mph - N/A   Unknown
4:55 AM 45.0 °F 42.6 °F - N/A% 30.12 in 7.0 mi East 4.6 mph - N/A   Unknown
5:15 AM 44.6 °F 40.7 °F - N/A% 30.11 in 7.0 mi ENE 6.9 mph - N/A   Unknown
5:35 AM 44.2 °F 41.8 °F - N/A% 30.11 in 7.0 mi ENE 4.6 mph - N/A   Unknown
5:55 AM 44.2 °F 41.0 °F - N/A% 30.11 in 7.0 mi ENE 5.8 mph - N/A   Unknown
6:15 AM 44.1 °F 40.8 °F 44.2 °F 100% 30.12 in 10.0 mi ENE 5.8 mph - N/A   Unknown
6:35 AM 44.2 °F 41.8 °F 44.6 °F 100% 30.14 in 10.0 mi ENE 4.6 mph - N/A   Unknown
6:55 AM 44.2 °F 40.3 °F 44.6 °F 100% 30.14 in 10.0 mi East 6.9 mph - N/A   Unknown
7:15 AM 45.7 °F 43.4 °F 45.9 °F 100% 30.14 in 10.0 mi East 4.6 mph - N/A   Unknown
7:35 AM 48.0 °F - 47.5 °F 98% 30.15 in 10.0 mi East 9.2 mph - N/A   Unknown
7:55 AM 49.5 °F - 47.7 °F 94% 30.15 in 10.0 mi ENE 6.9 mph - N/A   Unknown
8:15 AM 50.9 °F - 48.4 °F 91% 30.15 in 10.0 mi East 9.2 mph - N/A   Unknown
8:35 AM 50.9 °F - 47.3 °F 87% 30.16 in 10.0 mi ENE 8.1 mph - N/A   Unknown
8:55 AM 51.3 °F - 45.7 °F 81% 30.16 in 10.0 mi East 9.2 mph - N/A   Unknown
9:15 AM 52.9 °F - 44.1 °F 72% 30.17 in 10.0 mi East 12.7 mph 16.1 mph N/A   Unknown
9:35 AM 54.7 °F - 42.8 °F 64% 30.17 in 10.0 mi East 9.2 mph - N/A   Unknown
9:55 AM 55.8 °F - 42.1 °F 60% 30.18 in 10.0 mi ENE 11.5 mph - N/A   Unknown
10:15 AM 55.8 °F - 41.4 °F 58% 30.18 in 10.0 mi East 10.4 mph 16.1 mph N/A   Unknown
10:35 AM 56.1 °F - 40.8 °F 57% 30.19 in 10.0 mi ESE 11.5 mph 18.4 mph N/A   Unknown
10:55 AM 56.7 °F - 40.6 °F 55% 30.19 in 10.0 mi SE 12.7 mph 16.1 mph N/A   Unknown
11:15 AM 58.1 °F - 40.5 °F 52% 30.19 in 10.0 mi East 11.5 mph - N/A   Unknown
11:35 AM 58.3 °F - 40.1 °F 51% 30.19 in 10.0 mi East 8.1 mph - N/A   Unknown
11:55 AM 58.8 °F - 39.0 °F 48% 30.19 in 10.0 mi ESE 5.8 mph 18.4 mph N/A   Unknown
12:15 PM 58.3 °F - 38.3 °F 47% 30.18 in 10.0 mi ENE 6.9 mph - N/A   Unknown
12:35 PM 59.9 °F - 39.4 °F 47% 30.17 in 10.0 mi East 6.9 mph - N/A   Unknown
12:55 PM 60.8 °F - 40.3 °F 47% 30.17 in 10.0 mi ENE 8.1 mph - N/A   Unknown
1:15 PM 60.8 °F - 39.6 °F 46% 30.16 in 10.0 mi East 5.8 mph 10.4 mph N/A   Unknown
1:35 PM 60.8 °F - 38.7 °F 44% 30.16 in 10.0 mi ESE 6.9 mph - N/A   Unknown
1:55 PM 61.9 °F - 38.8 °F 43% 30.14 in 10.0 mi East 8.1 mph - N/A   Unknown
2:15 PM 62.1 °F - 37.4 °F 40% 30.14 in 10.0 mi East 9.2 mph 16.1 mph N/A   Unknown
2:35 PM 61.9 °F - 36.9 °F 39% 30.14 in 10.0 mi ESE 6.9 mph - N/A   Unknown
2:55 PM 63.5 °F - 36.5 °F 37% 30.13 in 10.0 mi ESE 4.6 mph - N/A   Unknown
3:15 PM 63.5 °F - 36.5 °F 37% 30.12 in 10.0 mi NE 9.2 mph 16.1 mph N/A   Unknown
3:35 PM 63.7 °F - 36.7 °F 37% 30.12 in 10.0 mi East 6.9 mph - N/A   Unknown
3:55 PM 64.2 °F - 35.1 °F 34% 30.12 in 10.0 mi ESE 5.8 mph - N/A   Unknown
4:15 PM 64.4 °F - 33.4 °F 32% 30.12 in 10.0 mi Calm Calm - N/A   Unknown
4:35 PM 64.2 °F - 34.5 °F 33% 30.11 in 10.0 mi ESE 10.4 mph - N/A   Unknown
4:55 PM 65.7 °F - 34.9 °F 32% 30.11 in 10.0 mi SE 10.4 mph - N/A   Unknown
5:15 PM 65.3 °F - 34.9 °F 32% 30.11 in 10.0 mi SE 8.1 mph - N/A   Unknown
5:35 PM 65.7 °F - 35.4 °F 33% 30.12 in 10.0 mi SE 8.1 mph - N/A   Unknown
5:55 PM 64.6 °F - 35.4 °F 34% 30.11 in 10.0 mi East 8.1 mph - N/A   Unknown
6:15 PM 64.9 °F - 36.5 °F 35% 30.11 in 10.0 mi SE 6.9 mph - N/A   Unknown
6:35 PM 64.0 °F - 35.1 °F 34% 30.11 in 10.0 mi East 4.6 mph - N/A   Unknown
6:55 PM 63.5 °F - 36.1 °F 36% 30.11 in 10.0 mi ESE 5.8 mph - N/A   Unknown
7:15 PM 63.5 °F - 36.0 °F 36% 30.11 in 10.0 mi East 4.6 mph - N/A   Unknown
7:35 PM 62.8 °F - 37.2 °F 39% 30.12 in 10.0 mi East 3.5 mph - N/A   Unknown
7:55 PM 62.1 °F - 38.1 °F 41% 30.12 in 10.0 mi Calm Calm - N/A   Unknown
8:15 PM 61.7 °F - 38.8 °F 43% 30.12 in 10.0 mi Calm Calm - N/A   Unknown
8:35 PM 61.0 °F - 39.9 °F 46% 30.12 in 10.0 mi Calm Calm - N/A   Unknown
8:55 PM 60.3 °F - 41.7 °F 50% 30.13 in 10.0 mi Calm Calm - N/A   Unknown
9:15 PM 58.3 °F - 43.3 °F 58% 30.14 in 10.0 mi Calm Calm - N/A   Unknown
9:35 PM 58.3 °F - 43.7 °F 58% 30.14 in 10.0 mi Calm Calm - N/A   Unknown
9:55 PM 57.6 °F - 44.6 °F 62% 30.14 in 10.0 mi Calm Calm - N/A   Unknown
10:15 PM 55.9 °F - 43.7 °F 63% 30.14 in 10.0 mi ENE 3.5 mph - N/A   Unknown
10:35 PM 57.0 °F - 42.3 °F 58% 30.15 in 10.0 mi Calm Calm - N/A   Unknown
10:55 PM 56.1 °F - 42.1 °F 59% - 10.0 mi Calm Calm - N/A   Unknown
11:15 PM 56.1 °F - 42.1 °F 59% 30.16 in 10.0 mi Calm Calm - N/A   Unknown
11:35 PM 57.0 °F - 41.9 °F 57% 30.16 in 10.0 mi East 3.5 mph - N/A   Unknown
11:55 PM 56.5 °F - 41.2 °F 57% 30.16 in 10.0 mi ESE 4.6 mph - N/A   Unknown